UVL7464 EGJB-LSZB

Flight info

Callsign UVL7464
Flight time 1h 36m
Altitude 23000
Route ORVAL DCT EKRAS UN491 RESMI UM975 PEKIM DCT LUSAR Z64 MOLUS N871 SOSAL Z61 FRIBU
Aircraft DH8D/M-SDE2E3FGRY/H

Departure

Time 2026-04-25 14:32
Airport Guernsey Airport (EGJB)

Arrival

Time 2026-04-25 16:08
Airport Bern Airport (LSZB)
Time Latitude Longitude Altitude Speed Heading
2026-04-25 14:01 49.43282 -2.59537 332 ft 0 kts 180°
2026-04-25 14:25 49.43281 -2.59537 332 ft 0 kts 180°
2026-04-25 14:25 49.43282 -2.59537 332 ft 1 kts 180°
2026-04-25 14:26 49.43302 -2.59537 332 ft 2 kts 180°
2026-04-25 14:26 49.43317 -2.59537 332 ft 2 kts 180°
2026-04-25 14:26 49.43332 -2.59537 332 ft 2 kts 185°
2026-04-25 14:26 49.43346 -2.59530 332 ft 2 kts 210°
2026-04-25 14:27 49.43357 -2.59515 332 ft 2 kts 232°
2026-04-25 14:27 49.43364 -2.59495 332 ft 2 kts 255°
2026-04-25 14:27 49.43366 -2.59479 332 ft 0 kts 268°
2026-04-25 14:29 49.43365 -2.59512 332 ft 12 kts 268°
2026-04-25 14:29 49.43353 -2.59700 329 ft 15 kts 248°
2026-04-25 14:29 49.43344 -2.59832 327 ft 14 kts 266°
2026-04-25 14:29 49.43337 -2.59999 324 ft 16 kts 266°
2026-04-25 14:30 49.43335 -2.60117 321 ft 17 kts 268°
2026-04-25 14:30 49.43346 -2.60647 307 ft 22 kts 281°
2026-04-25 14:30 49.43363 -2.60876 302 ft 21 kts 266°
2026-04-25 14:31 49.43366 -2.61088 299 ft 17 kts 296°
2026-04-25 14:31 49.43451 -2.61175 298 ft 12 kts 26°
2026-04-25 14:31 49.43467 -2.61056 300 ft 25 kts 87°
2026-04-25 14:31 49.43489 -2.60329 316 ft 107 kts 87°
2026-04-25 14:32 49.43528 -2.58875 383 ft 152 kts 87°
2026-04-25 14:32 49.43538 -2.57244 840 ft 160 kts 89°
2026-04-25 14:32 49.43559 -2.55509 1383 ft 167 kts 88°
2026-04-25 14:32 49.43590 -2.53704 1940 ft 175 kts 88°
2026-04-25 14:33 49.43611 -2.51820 2490 ft 183 kts 90°
2026-04-25 14:33 49.43166 -2.49995 3019 ft 191 kts 135°
2026-04-25 14:33 49.41930 -2.49379 3550 ft 194 kts 189°
2026-04-25 14:33 49.40722 -2.50229 4115 ft 193 kts 213°
2026-04-25 14:34 49.39607 -2.51331 4657 ft 196 kts 214°
2026-04-25 14:34 49.38452 -2.52484 5204 ft 199 kts 214°
2026-04-25 14:34 49.37291 -2.53647 5747 ft 201 kts 214°
2026-04-25 14:34 49.36124 -2.54817 6290 ft 204 kts 214°
2026-04-25 14:35 49.34945 -2.56006 6827 ft 206 kts 214°
2026-04-25 14:35 49.33635 -2.56793 7341 ft 207 kts 183°
2026-04-25 14:35 49.32201 -2.56625 7901 ft 206 kts 173°
2026-04-25 14:35 49.30786 -2.56359 8437 ft 207 kts 173°
2026-04-25 14:36 49.29375 -2.56090 8970 ft 206 kts 173°
2026-04-25 14:36 49.27949 -2.55818 9515 ft 206 kts 173°
2026-04-25 14:36 49.26542 -2.55551 10044 ft 204 kts 173°
2026-04-25 14:36 49.25163 -2.55289 10567 ft 202 kts 173°
2026-04-25 14:37 49.23770 -2.55026 11097 ft 199 kts 173°
2026-04-25 14:37 49.22434 -2.54772 11617 ft 194 kts 174°
2026-04-25 14:37 49.21117 -2.54526 12131 ft 187 kts 174°
2026-04-25 14:37 49.19861 -2.54293 12632 ft 177 kts 174°
2026-04-25 14:38 49.18685 -2.54076 13097 ft 164 kts 175°
2026-04-25 14:38 49.17577 -2.53875 13362 ft 164 kts 175°
2026-04-25 14:38 49.16376 -2.53663 13434 ft 185 kts 175°
2026-04-25 14:38 49.15002 -2.53414 13492 ft 212 kts 174°
2026-04-25 14:39 49.13460 -2.53121 13687 ft 232 kts 173°
2026-04-25 14:39 49.11852 -2.52671 13959 ft 236 kts 159°
2026-04-25 14:39 49.10619 -2.51121 14269 ft 235 kts 118°
2026-04-25 14:39 49.10233 -2.48758 14598 ft 233 kts 93°
2026-04-25 14:40 49.09916 -2.46331 14835 ft 234 kts 109°
2026-04-25 14:40 49.09340 -2.44019 15173 ft 236 kts 110°
2026-04-25 14:40 49.08767 -2.41663 15426 ft 238 kts 109°
2026-04-25 14:40 49.08216 -2.39281 15788 ft 239 kts 108°
2026-04-25 14:41 49.07682 -2.36886 16126 ft 241 kts 107°
2026-04-25 14:41 49.07156 -2.34455 16386 ft 242 kts 108°
2026-04-25 14:41 49.06639 -2.32012 16677 ft 243 kts 107°
2026-04-25 14:41 49.06132 -2.29581 16933 ft 243 kts 107°
2026-04-25 14:42 49.05625 -2.27119 17241 ft 243 kts 107°
2026-04-25 14:42 49.05294 -2.25499 17452 ft 243 kts 107°
2026-04-25 14:42 49.04630 -2.22237 17863 ft 241 kts 106°
2026-04-25 14:42 49.04136 -2.19799 18180 ft 240 kts 106°
2026-04-25 14:43 49.03652 -2.17410 18392 ft 237 kts 107°
2026-04-25 14:43 49.03170 -2.15028 18697 ft 234 kts 107°
2026-04-25 14:43 49.02697 -2.12683 19022 ft 231 kts 107°
2026-04-25 14:43 49.02232 -2.10375 19316 ft 226 kts 107°
2026-04-25 14:44 49.01773 -2.08106 19588 ft 223 kts 107°
2026-04-25 14:44 49.01312 -2.05827 19715 ft 226 kts 107°
2026-04-25 14:44 49.00851 -2.03545 19812 ft 231 kts 107°
2026-04-25 14:44 49.00370 -2.01162 19899 ft 236 kts 107°
2026-04-25 14:45 49.00048 -1.99566 19958 ft 239 kts 107°
2026-04-25 14:45 48.99390 -1.96304 20094 ft 247 kts 107°
2026-04-25 14:45 48.98879 -1.93778 20198 ft 253 kts 107°
2026-04-25 14:45 48.98357 -1.91199 20286 ft 259 kts 107°
2026-04-25 14:46 48.97816 -1.88525 20397 ft 266 kts 107°
2026-04-25 14:46 48.97268 -1.85824 20507 ft 271 kts 107°
2026-04-25 14:46 48.96711 -1.83080 20664 ft 274 kts 107°
2026-04-25 14:46 48.96146 -1.80299 20823 ft 277 kts 107°
2026-04-25 14:47 48.95574 -1.77494 20968 ft 280 kts 107°
2026-04-25 14:47 48.95184 -1.75582 21071 ft 282 kts 107°
2026-04-25 14:47 48.94405 -1.71770 21280 ft 285 kts 107°
2026-04-25 14:47 48.93819 -1.68909 21444 ft 288 kts 107°
2026-04-25 14:48 48.93220 -1.65988 21607 ft 290 kts 107°
2026-04-25 14:48 48.92615 -1.63041 21752 ft 292 kts 107°
2026-04-25 14:48 48.92012 -1.60109 21905 ft 294 kts 107°
2026-04-25 14:48 48.91398 -1.57129 22067 ft 296 kts 107°
2026-04-25 14:49 48.90789 -1.54178 22237 ft 296 kts 107°
2026-04-25 14:49 48.90176 -1.51203 22457 ft 294 kts 107°
2026-04-25 14:49 48.89793 -1.48201 22677 ft 291 kts 94°
2026-04-25 14:49 48.89653 -1.45120 22908 ft 288 kts 92°
2026-04-25 14:50 48.89532 -1.42125 23076 ft 288 kts 92°
2026-04-25 14:50 48.89405 -1.39060 23121 ft 292 kts 92°
2026-04-25 14:50 48.89273 -1.35956 23133 ft 297 kts 93°
2026-04-25 14:50 48.89137 -1.32811 23137 ft 303 kts 94°
2026-04-25 14:51 48.88995 -1.29605 23138 ft 307 kts 94°
2026-04-25 14:51 48.88849 -1.26341 23140 ft 312 kts 94°
2026-04-25 14:51 48.88699 -1.23013 23137 ft 316 kts 94°
2026-04-25 14:51 48.88477 -1.19713 23135 ft 321 kts 99°
2026-04-25 14:52 48.88045 -1.16373 23137 ft 324 kts 102°
2026-04-25 14:52 48.87581 -1.13001 23139 ft 328 kts 102°
2026-04-25 14:52 48.87114 -1.09597 23138 ft 331 kts 102°
2026-04-25 14:52 48.86807 -1.07342 23140 ft 333 kts 102°
2026-04-25 14:53 48.86180 -1.02738 23142 ft 336 kts 102°
2026-04-25 14:53 48.85710 -0.99266 23143 ft 338 kts 102°
2026-04-25 14:53 48.85237 -0.95775 23142 ft 340 kts 102°
2026-04-25 14:53 48.84756 -0.92224 23141 ft 341 kts 102°
2026-04-25 14:54 48.84282 -0.88731 23145 ft 343 kts 102°
2026-04-25 14:54 48.83798 -0.85160 23142 ft 343 kts 102°
2026-04-25 14:54 48.83316 -0.81620 23143 ft 344 kts 102°
2026-04-25 14:54 48.82835 -0.78090 23142 ft 345 kts 102°
2026-04-25 14:55 48.82348 -0.74514 23140 ft 345 kts 102°
2026-04-25 14:55 48.81864 -0.70979 23137 ft 346 kts 102°
2026-04-25 14:55 48.81371 -0.67383 23140 ft 346 kts 102°
2026-04-25 14:55 48.80883 -0.63824 23139 ft 347 kts 102°
2026-04-25 14:56 48.80393 -0.60265 23140 ft 348 kts 102°
2026-04-25 14:56 48.79901 -0.56704 23139 ft 348 kts 102°
2026-04-25 14:56 48.79406 -0.53123 23139 ft 348 kts 102°
2026-04-25 14:56 48.78902 -0.49492 23139 ft 349 kts 102°
2026-04-25 14:57 48.78408 -0.45933 23138 ft 349 kts 102°
2026-04-25 14:57 48.77906 -0.42331 23136 ft 349 kts 102°
2026-04-25 14:57 48.77406 -0.38752 23134 ft 350 kts 102°
2026-04-25 14:57 48.76898 -0.35125 23137 ft 350 kts 102°
2026-04-25 14:58 48.76395 -0.31542 23139 ft 350 kts 103°
2026-04-25 14:58 48.75887 -0.27930 23138 ft 350 kts 103°
2026-04-25 14:58 48.75381 -0.24341 23135 ft 350 kts 103°
2026-04-25 14:58 48.74878 -0.20778 23135 ft 350 kts 103°
2026-04-25 14:59 48.74368 -0.17179 23138 ft 350 kts 103°
2026-04-25 14:59 48.73846 -0.13524 23151 ft 362 kts 103°
2026-04-25 14:59 48.73301 -0.09733 23150 ft 374 kts 103°
2026-04-25 14:59 48.72748 -0.05884 23144 ft 383 kts 104°
2026-04-25 15:00 48.72192 -0.01992 23128 ft 377 kts 103°
2026-04-25 15:00 48.71644 0.01856 23125 ft 372 kts 103°
2026-04-25 15:00 48.71099 0.05664 23128 ft 368 kts 103°
2026-04-25 15:00 48.70561 0.09404 23129 ft 364 kts 103°
2026-04-25 15:01 48.70025 0.13120 23130 ft 361 kts 103°
2026-04-25 15:01 48.69494 0.16790 23132 ft 359 kts 103°
2026-04-25 15:01 48.68957 0.20488 23130 ft 358 kts 103°
2026-04-25 15:01 48.68426 0.24135 23131 ft 356 kts 103°
2026-04-25 15:02 48.67894 0.27781 23133 ft 355 kts 103°
2026-04-25 15:02 48.67365 0.31399 23134 ft 355 kts 104°
2026-04-25 15:02 48.66829 0.35052 23137 ft 354 kts 104°
2026-04-25 15:02 48.66298 0.38666 23142 ft 353 kts 104°
2026-04-25 15:03 48.65769 0.42257 23141 ft 353 kts 104°
2026-04-25 15:03 48.65238 0.45855 23150 ft 352 kts 104°
2026-04-25 15:03 48.64700 0.49487 23149 ft 352 kts 104°
2026-04-25 15:03 48.64170 0.53064 23147 ft 352 kts 104°
2026-04-25 15:04 48.63632 0.56678 23145 ft 352 kts 104°
2026-04-25 15:04 48.63094 0.60290 23143 ft 352 kts 104°
2026-04-25 15:04 48.62556 0.63889 23143 ft 351 kts 104°
2026-04-25 15:04 48.62018 0.67482 23144 ft 351 kts 104°
2026-04-25 15:05 48.61479 0.71076 23147 ft 351 kts 104°
2026-04-25 15:05 48.60939 0.74660 23146 ft 351 kts 104°
2026-04-25 15:05 48.60398 0.78254 23145 ft 350 kts 105°
2026-04-25 15:06 48.59316 0.85407 23146 ft 350 kts 104°
2026-04-25 15:06 48.58778 0.88953 23145 ft 350 kts 104°
2026-04-25 15:06 48.58231 0.92550 23147 ft 350 kts 104°
2026-04-25 15:06 48.57684 0.96132 23146 ft 350 kts 104°
2026-04-25 15:07 48.57143 0.99671 23144 ft 350 kts 104°
2026-04-25 15:07 48.56593 1.03262 23140 ft 350 kts 104°
2026-04-25 15:07 48.56050 1.06805 23135 ft 350 kts 104°
2026-04-25 15:07 48.55497 1.10396 23137 ft 350 kts 104°
2026-04-25 15:08 48.54951 1.13939 23134 ft 350 kts 104°
2026-04-25 15:08 48.54399 1.17513 23130 ft 350 kts 104°
2026-04-25 15:08 48.53852 1.21040 23132 ft 350 kts 104°
2026-04-25 15:08 48.53298 1.24614 23130 ft 350 kts 104°
2026-04-25 15:09 48.52742 1.28188 23128 ft 350 kts 104°
2026-04-25 15:09 48.52186 1.31752 23129 ft 350 kts 104°
2026-04-25 15:09 48.51075 1.38857 23130 ft 350 kts 104°
2026-04-25 15:10 48.50513 1.42440 23130 ft 350 kts 104°
2026-04-25 15:10 48.49959 1.45962 23129 ft 350 kts 104°
2026-04-25 15:10 48.48830 1.53114 23128 ft 351 kts 104°
2026-04-25 15:11 48.48264 1.56693 23129 ft 351 kts 104°
2026-04-25 15:11 48.47697 1.60266 23130 ft 351 kts 104°
2026-04-25 15:11 48.47131 1.63829 23128 ft 351 kts 104°
2026-04-25 15:12 48.45991 1.70974 23126 ft 351 kts 104°
2026-04-25 15:12 48.45421 1.74539 23128 ft 351 kts 104°
2026-04-25 15:12 48.44850 1.78100 23131 ft 350 kts 104°
2026-04-25 15:12 48.44476 1.80428 23130 ft 350 kts 104°
2026-04-25 15:13 48.43706 1.85210 23128 ft 350 kts 104°
2026-04-25 15:13 48.42559 1.92311 23127 ft 350 kts 104°
2026-04-25 15:13 48.41985 1.95848 23126 ft 350 kts 104°
2026-04-25 15:14 48.41414 1.99367 23127 ft 350 kts 104°
2026-04-25 15:14 48.40832 2.02942 23130 ft 350 kts 104°
2026-04-25 15:14 48.40258 2.06464 23128 ft 350 kts 104°
2026-04-25 15:14 48.39675 2.10028 23128 ft 350 kts 104°
2026-04-25 15:15 48.39091 2.13593 23130 ft 351 kts 104°
2026-04-25 15:15 48.38513 2.17112 23131 ft 351 kts 104°
2026-04-25 15:15 48.37925 2.20685 23131 ft 351 kts 104°
2026-04-25 15:15 48.37342 2.24226 23128 ft 351 kts 104°
2026-04-25 15:16 48.36756 2.27775 23126 ft 351 kts 104°
2026-04-25 15:16 48.36167 2.31330 23126 ft 351 kts 104°
2026-04-25 15:16 48.34992 2.38409 23126 ft 351 kts 104°
2026-04-25 15:17 48.33804 2.45530 23127 ft 351 kts 104°
2026-04-25 15:17 48.33213 2.49065 23125 ft 351 kts 104°
2026-04-25 15:17 48.32617 2.52620 23126 ft 351 kts 104°
2026-04-25 15:18 48.32023 2.56161 23125 ft 351 kts 104°
2026-04-25 15:18 48.30826 2.63265 23123 ft 351 kts 104°
2026-04-25 15:18 48.30224 2.66826 23121 ft 351 kts 105°
2026-04-25 15:19 48.29628 2.70344 23125 ft 351 kts 105°
2026-04-25 15:19 48.29229 2.72696 23125 ft 351 kts 105°
2026-04-25 15:19 48.28425 2.77429 23127 ft 351 kts 105°
2026-04-25 15:19 48.27784 2.80967 23117 ft 351 kts 109°
2026-04-25 15:20 48.26537 2.84078 23142 ft 346 kts 133°
2026-04-25 15:20 48.24894 2.86658 23122 ft 346 kts 136°
2026-04-25 15:20 48.23214 2.89227 23121 ft 347 kts 136°
2026-04-25 15:20 48.21519 2.91807 23122 ft 347 kts 136°
2026-04-25 15:21 48.19818 2.94397 23124 ft 347 kts 136°
2026-04-25 15:21 48.18144 2.96945 23126 ft 347 kts 136°
2026-04-25 15:21 48.16448 2.99524 23123 ft 348 kts 136°
2026-04-25 15:21 48.14750 3.02107 23123 ft 348 kts 136°
2026-04-25 15:22 48.13049 3.04693 23122 ft 348 kts 136°
2026-04-25 15:22 48.11356 3.07262 23123 ft 349 kts 136°
2026-04-25 15:22 48.09652 3.09849 23123 ft 349 kts 136°
2026-04-25 15:22 48.07957 3.12418 23122 ft 349 kts 136°
2026-04-25 15:23 48.06254 3.14999 23119 ft 350 kts 136°
2026-04-25 15:23 48.04531 3.17606 23122 ft 350 kts 136°
2026-04-25 15:23 48.02846 3.20153 23122 ft 350 kts 136°
2026-04-25 15:23 48.01129 3.22746 23123 ft 350 kts 136°
2026-04-25 15:24 47.99416 3.25332 23123 ft 350 kts 136°
2026-04-25 15:24 47.97693 3.27930 23121 ft 351 kts 136°
2026-04-25 15:24 47.95982 3.30507 23122 ft 351 kts 136°
2026-04-25 15:24 47.94841 3.32224 23121 ft 351 kts 136°
2026-04-25 15:25 47.92562 3.35650 23120 ft 351 kts 136°
2026-04-25 15:25 47.90827 3.38256 23120 ft 352 kts 135°
2026-04-25 15:25 47.89117 3.40820 23118 ft 352 kts 135°
2026-04-25 15:25 47.87397 3.43399 23114 ft 352 kts 135°
2026-04-25 15:26 47.85655 3.46007 23116 ft 352 kts 135°
2026-04-25 15:26 47.83943 3.48568 23118 ft 351 kts 135°
2026-04-25 15:26 47.82232 3.51123 23116 ft 352 kts 135°
2026-04-25 15:26 47.80493 3.53720 23113 ft 352 kts 135°
2026-04-25 15:27 47.78769 3.56290 23116 ft 352 kts 135°
2026-04-25 15:27 47.77055 3.58845 23116 ft 352 kts 135°
2026-04-25 15:27 47.73605 3.63976 23116 ft 352 kts 135°
2026-04-25 15:28 47.71864 3.66562 23112 ft 352 kts 136°
2026-04-25 15:28 47.70135 3.69128 23116 ft 351 kts 136°
2026-04-25 15:28 47.68423 3.71666 23116 ft 351 kts 136°
2026-04-25 15:28 47.66693 3.74227 23114 ft 351 kts 136°
2026-04-25 15:29 47.64960 3.76792 23113 ft 351 kts 136°
2026-04-25 15:29 47.63250 3.79319 23112 ft 351 kts 136°
2026-04-25 15:29 47.61515 3.81881 23110 ft 351 kts 136°
2026-04-25 15:29 47.59793 3.84421 23108 ft 351 kts 136°
2026-04-25 15:30 47.58643 3.86115 23112 ft 351 kts 136°
2026-04-25 15:30 47.56327 3.89526 23110 ft 351 kts 135°
2026-04-25 15:30 47.54607 3.92056 23108 ft 351 kts 135°
2026-04-25 15:30 47.52884 3.94587 23112 ft 351 kts 135°
2026-04-25 15:31 47.51143 3.97142 23109 ft 351 kts 135°
2026-04-25 15:31 47.49414 3.99677 23114 ft 351 kts 135°
2026-04-25 15:31 47.47673 4.02229 23111 ft 351 kts 135°
2026-04-25 15:31 47.45950 4.04750 23110 ft 351 kts 135°
2026-04-25 15:32 47.44211 4.07292 23112 ft 351 kts 135°
2026-04-25 15:32 47.42487 4.09811 23114 ft 351 kts 135°
2026-04-25 15:32 47.40749 4.12347 23109 ft 351 kts 135°
2026-04-25 15:33 47.37306 4.17363 23111 ft 351 kts 135°
2026-04-25 15:33 47.35554 4.19912 23112 ft 351 kts 135°
2026-04-25 15:33 47.33826 4.22424 23113 ft 351 kts 135°
2026-04-25 15:33 47.32098 4.24933 23110 ft 351 kts 135°
2026-04-25 15:34 47.30370 4.27440 23111 ft 351 kts 135°
2026-04-25 15:34 47.28621 4.29974 23111 ft 351 kts 135°
2026-04-25 15:34 47.26890 4.32480 23113 ft 351 kts 135°
2026-04-25 15:34 47.25720 4.34173 23110 ft 351 kts 135°
2026-04-25 15:35 47.21669 4.40025 23105 ft 351 kts 135°
2026-04-25 15:35 47.19938 4.42521 23100 ft 351 kts 135°
2026-04-25 15:35 47.18186 4.45046 23103 ft 351 kts 135°
2026-04-25 15:36 47.14693 4.50071 23095 ft 352 kts 135°
2026-04-25 15:36 47.12952 4.52573 23097 ft 352 kts 135°
2026-04-25 15:36 47.11223 4.55054 23098 ft 352 kts 135°
2026-04-25 15:37 47.09464 4.57576 23099 ft 352 kts 135°
2026-04-25 15:37 47.07730 4.60060 23094 ft 352 kts 135°
2026-04-25 15:37 47.05969 4.62581 23091 ft 352 kts 135°
2026-04-25 15:37 47.04221 4.65079 23093 ft 352 kts 135°
2026-04-25 15:38 47.02464 4.67588 23093 ft 352 kts 135°
2026-04-25 15:38 47.00705 4.70099 23094 ft 352 kts 135°
2026-04-25 15:38 46.98958 4.72589 23091 ft 353 kts 135°
2026-04-25 15:38 46.97197 4.75097 23089 ft 353 kts 135°
2026-04-25 15:39 46.95437 4.77601 23088 ft 353 kts 135°
2026-04-25 15:39 46.93687 4.80088 23084 ft 353 kts 135°
2026-04-25 15:39 46.91914 4.82606 23083 ft 353 kts 135°
2026-04-25 15:39 46.90174 4.85074 23086 ft 353 kts 135°
2026-04-25 15:40 46.88996 4.86744 23084 ft 353 kts 135°
2026-04-25 15:40 46.87229 4.89247 23083 ft 353 kts 135°
2026-04-25 15:40 46.84866 4.92591 23079 ft 353 kts 135°
2026-04-25 15:40 46.83106 4.95077 23080 ft 353 kts 135°
2026-04-25 15:41 46.81359 4.97544 23076 ft 353 kts 135°
2026-04-25 15:41 46.79581 5.00052 23074 ft 353 kts 135°
2026-04-25 15:41 46.77832 5.02517 23074 ft 353 kts 135°
2026-04-25 15:41 46.76064 5.05006 23077 ft 353 kts 135°
2026-04-25 15:42 46.74288 5.07504 23073 ft 353 kts 135°
2026-04-25 15:42 46.72523 5.09984 23071 ft 353 kts 135°
2026-04-25 15:42 46.70779 5.12431 23072 ft 353 kts 135°
2026-04-25 15:42 46.69009 5.14914 23074 ft 353 kts 135°
2026-04-25 15:43 46.67345 5.17542 23045 ft 352 kts 122°
2026-04-25 15:43 46.66436 5.20784 23099 ft 344 kts 101°
2026-04-25 15:43 46.65903 5.24180 23082 ft 345 kts 99°
2026-04-25 15:43 46.65392 5.27567 23071 ft 345 kts 99°
2026-04-25 15:44 46.64880 5.30980 23068 ft 345 kts 99°
2026-04-25 15:44 46.64373 5.34346 22897 ft 339 kts 99°
2026-04-25 15:44 46.63874 5.37664 22579 ft 338 kts 99°
2026-04-25 15:44 46.63370 5.41000 22270 ft 337 kts 99°
2026-04-25 15:45 46.62872 5.44281 21961 ft 336 kts 99°
2026-04-25 15:45 46.62365 5.47612 21651 ft 334 kts 99°
2026-04-25 15:45 46.61866 5.50864 21347 ft 333 kts 99°
2026-04-25 15:45 46.61523 5.53068 21133 ft 333 kts 99°
2026-04-25 15:46 46.60846 5.57414 20729 ft 331 kts 99°
2026-04-25 15:46 46.60338 5.60666 20425 ft 330 kts 99°
2026-04-25 15:46 46.59833 5.63894 20122 ft 329 kts 99°
2026-04-25 15:46 46.59325 5.67134 19821 ft 328 kts 99°
2026-04-25 15:47 46.58819 5.70355 19527 ft 327 kts 100°
2026-04-25 15:47 46.58317 5.73543 19225 ft 326 kts 100°
2026-04-25 15:47 46.57809 5.76764 18911 ft 325 kts 99°
2026-04-25 15:47 46.57308 5.79933 18623 ft 324 kts 99°
2026-04-25 15:48 46.56808 5.83092 18329 ft 323 kts 99°
2026-04-25 15:48 46.56302 5.86282 18015 ft 322 kts 99°
2026-04-25 15:48 46.55799 5.89448 17724 ft 321 kts 99°
2026-04-25 15:48 46.55302 5.92574 17445 ft 321 kts 99°
2026-04-25 15:49 46.54797 5.95736 17155 ft 320 kts 99°
2026-04-25 15:49 46.54295 5.98875 16860 ft 319 kts 99°
2026-04-25 15:49 46.53799 6.01976 16571 ft 318 kts 100°
2026-04-25 15:49 46.53296 6.05107 16269 ft 317 kts 100°
2026-04-25 15:50 46.52802 6.08185 15986 ft 315 kts 100°
2026-04-25 15:50 46.52303 6.11285 15674 ft 314 kts 100°
2026-04-25 15:50 46.51805 6.14365 15391 ft 313 kts 100°
2026-04-25 15:50 46.51312 6.17415 15091 ft 312 kts 100°
2026-04-25 15:51 46.50821 6.20448 14790 ft 310 kts 100°
2026-04-25 15:51 46.50491 6.22487 14588 ft 309 kts 100°
2026-04-25 15:51 46.49840 6.26494 14194 ft 308 kts 100°
2026-04-25 15:51 46.49350 6.29498 13893 ft 306 kts 100°
2026-04-25 15:52 46.48859 6.32510 13584 ft 305 kts 101°
2026-04-25 15:52 46.48375 6.35474 13293 ft 304 kts 101°
2026-04-25 15:52 46.47885 6.38472 12971 ft 303 kts 101°
2026-04-25 15:52 46.47401 6.41422 12666 ft 302 kts 101°
2026-04-25 15:53 46.46916 6.44376 12372 ft 301 kts 101°
2026-04-25 15:53 46.46500 6.47299 12154 ft 295 kts 97°
2026-04-25 15:53 46.46203 6.50197 12117 ft 286 kts 96°
2026-04-25 15:53 46.45919 6.53011 12105 ft 277 kts 96°
2026-04-25 15:54 46.45641 6.55736 12115 ft 269 kts 96°
2026-04-25 15:54 46.45364 6.58402 12121 ft 273 kts 96°
2026-04-25 15:54 46.45072 6.61174 12119 ft 286 kts 96°
2026-04-25 15:54 46.44761 6.64091 12148 ft 296 kts 97°
2026-04-25 15:55 46.44620 6.67084 12125 ft 302 kts 82°
2026-04-25 15:55 46.45220 6.69997 12172 ft 305 kts 68°
2026-04-25 15:55 46.46036 6.72888 12161 ft 312 kts 66°
2026-04-25 15:55 46.46912 6.75797 12156 ft 316 kts 65°
2026-04-25 15:56 46.47816 6.78679 12153 ft 319 kts 64°
2026-04-25 15:56 46.48764 6.81623 12161 ft 322 kts 64°
2026-04-25 15:56 46.49730 6.84575 12175 ft 324 kts 63°
2026-04-25 15:56 46.50702 6.87507 12168 ft 325 kts 63°
2026-04-25 15:57 46.51679 6.90433 12162 ft 319 kts 63°
2026-04-25 15:57 46.52637 6.93274 11876 ft 305 kts 63°
2026-04-25 15:57 46.53547 6.95958 11625 ft 294 kts 63°
2026-04-25 15:57 46.54434 6.98570 11356 ft 283 kts 63°
2026-04-25 15:58 46.55290 7.01089 11096 ft 274 kts 63°
2026-04-25 15:58 46.56121 7.03533 10836 ft 266 kts 63°
2026-04-25 15:58 46.56934 7.05922 10571 ft 259 kts 63°
2026-04-25 15:58 46.57713 7.08214 10315 ft 253 kts 63°
2026-04-25 15:59 46.58486 7.10490 10058 ft 247 kts 63°
2026-04-25 15:59 46.59260 7.12772 9813 ft 259 kts 63°
2026-04-25 15:59 46.60058 7.15136 9579 ft 263 kts 63°
2026-04-25 15:59 46.60861 7.17505 9330 ft 266 kts 63°
2026-04-25 16:00 46.61680 7.19923 9090 ft 269 kts 63°
2026-04-25 16:00 46.62234 7.21558 8927 ft 270 kts 63°
2026-04-25 16:00 46.63347 7.24850 8606 ft 272 kts 63°
2026-04-25 16:00 46.64177 7.27306 8358 ft 273 kts 63°
2026-04-25 16:01 46.65013 7.29785 8211 ft 271 kts 63°
2026-04-25 16:01 46.65827 7.32198 8166 ft 265 kts 63°
2026-04-25 16:01 46.66640 7.34610 8156 ft 265 kts 63°
2026-04-25 16:01 46.67456 7.37042 8106 ft 270 kts 63°
2026-04-25 16:02 46.68284 7.39506 7990 ft 276 kts 63°
2026-04-25 16:02 46.69128 7.42022 7863 ft 271 kts 63°
2026-04-25 16:02 46.69938 7.44423 7720 ft 257 kts 63°
2026-04-25 16:02 46.70696 7.46668 7572 ft 241 kts 62°
2026-04-25 16:03 46.71421 7.48813 7250 ft 234 kts 62°
2026-04-25 16:03 46.72131 7.50917 6829 ft 230 kts 63°
2026-04-25 16:03 46.72831 7.53008 6422 ft 231 kts 63°
2026-04-25 16:03 46.73529 7.55099 6181 ft 229 kts 63°
2026-04-25 16:04 46.74226 7.57198 6091 ft 228 kts 63°
2026-04-25 16:04 46.74862 7.59292 6057 ft 224 kts 68°
2026-04-25 16:04 46.75399 7.61381 6046 ft 220 kts 66°
2026-04-25 16:04 46.76302 7.63134 5883 ft 218 kts 32°
2026-04-25 16:05 46.77645 7.64109 5745 ft 218 kts 19°
2026-04-25 16:05 46.79110 7.64234 5667 ft 210 kts 339°
2026-04-25 16:05 46.81523 7.61753 5088 ft 219 kts 320°
2026-04-25 16:06 46.82690 7.60333 4605 ft 218 kts 320°
2026-04-25 16:06 46.83837 7.58937 4138 ft 213 kts 320°
2026-04-25 16:06 46.84940 7.57595 3760 ft 197 kts 321°
2026-04-25 16:06 46.85946 7.56370 3379 ft 185 kts 321°
2026-04-25 16:07 46.86904 7.55192 2982 ft 175 kts 319°
2026-04-25 16:07 46.87501 7.54429 2738 ft 171 kts 319°
2026-04-25 16:07 46.88693 7.53029 2322 ft 155 kts 319°
2026-04-25 16:07 46.89489 7.52057 2113 ft 147 kts 318°
2026-04-25 16:08 46.90258 7.51128 1875 ft 138 kts 319°
2026-04-25 16:08 46.90958 7.50274 1697 ft 120 kts 317°
2026-04-25 16:08 46.91383 7.49752 1693 ft 57 kts 320°
2026-04-25 16:08 46.91646 7.49430 1691 ft 41 kts 320°
2026-04-25 16:09 46.91837 7.49192 1689 ft 31 kts 319°
2026-04-25 16:09 46.91951 7.49061 1689 ft 11 kts 69°
2026-04-25 16:09 46.91861 7.49169 1689 ft 26 kts 140°
2026-04-25 16:09 46.91724 7.49334 1690 ft 25 kts 138°
2026-04-25 16:10 46.91589 7.49500 1691 ft 24 kts 140°
2026-04-25 16:10 46.91517 7.49590 1692 ft 4 kts 136°
2026-04-25 16:10 46.91433 7.49690 1692 ft 26 kts 140°
2026-04-25 16:10 46.91278 7.49880 1694 ft 22 kts 138°
2026-04-25 16:11 46.91275 7.49999 1694 ft 0 kts 47°
2026-04-25 16:11 46.91303 7.50069 1694 ft 14 kts 58°
2026-04-25 16:11 46.91293 7.50102 1695 ft 9 kts 239°
2026-04-25 16:11 46.91291 7.50080 1694 ft 0 kts 281°